This demonstration page uses our WeatherBlox Daily Observations layout. Learn more.

Left ArrowRight Arrow

39.95238, -75.16362

Hourly Observations for May 12, 2015

Temp ( °F °C ) Dew Point ( °F °C ) Humidity (%) Winds ( mph kmh ) Pressure ( in mb ) Visibility ( mi km ) Precip ( " mm )
12:22 am 00:22 Cloudy 71 21.7 66 18.9 84 84 Calm 29.94 1014 10 16 0.00 0.00
12:44 am 00:44 Mostly Cloudy 72 22.2 66 18.9 82 82 Calm 29.91 1013 10 16 0.00 0.00
12:54 am 00:54 Mostly Cloudy 72 22.2 66 18.9 82 82 Calm 29.92 1013 10 16 0.00 0.00
1:54 am 01:54 Cloudy 70 21.1 65 18.3 84 84 WSW 8 13 29.93 1014 10 16 0.00 0.00
2:54 am 02:54 Cloudy 70 21.1 64 17.8 82 82 Calm 29.92 1013 10 16 0.00 0.00
3:54 am 03:54 Mostly Clear 69 20.6 64 17.8 84 84 SW 3 6 29.91 1013 10 16 0.00 0.00
4:54 am 04:54 Mostly Clear 67 19.4 64 17.8 91 91 S 5 7 29.90 1012 10 16 0.00 0.00
5:03 am 05:03 Partly Cloudy 66 18.9 63 17.2 90 90 SSW 5 7 29.91 1013 8 13 0.00 0.00
5:54 am 05:54 Mostly Cloudy 68 20 64 17.8 87 87 SSW 6 9 29.91 1013 8 13 0.00 0.00
6:54 am 06:54 Mostly Cloudy 69 20.6 65 18.3 87 87 SSW 8 13 29.92 1013 7 11 0.00 0.00
7:54 am 07:54 Mostly Cloudy 71 21.7 66 18.9 84 84 SW 9 15 29.93 1014 7 11 0.00 0.00
8:41 am 08:41 Partly Cloudy 73 22.8 66 18.9 79 79 WSW 14 22 29.94 1014 10 16 0.00 0.00
8:54 am 08:54 Partly Cloudy 73 22.8 66 18.9 79 79 SW 12 19 29.93 1013 10 16 0.00 0.00
9:54 am 09:54 Partly Cloudy 77 25 65 18.3 66 66 SW 17 28 29.92 1013 10 16 0.00 0.00
10:54 am 10:54 Mostly Cloudy 80 26.7 64 17.8 58 58 SW 15 24 29.91 1013 10 16 0.00 0.00
11:54 am 11:54 Mostly Cloudy 82 27.8 61 16.1 49 49 W 16 26 29.90 1013 10 16 0.00 0.00
12:54 pm 12:54 Mostly Cloudy 83 28.3 62 16.7 49 49 WSW 15 24 29.88 1012 10 16 0.00 0.00
1:54 pm 13:54 Mostly Cloudy 86 30 57 13.9 37 37 WSW 20 31 29.86 1011 10 16 0.00 0.00
2:54 pm 14:54 Mostly Cloudy 85 29.4 56 13.3 37 37 WSW 18 30 29.85 1011 10 16 0.00 0.00
3:54 pm 15:54 Mostly Cloudy 86 30 58 14.4 39 39 WSW 16 26 29.83 1010 10 16 0.00 0.00
4:54 pm 16:54 Mostly Cloudy 85 29.4 54 12.2 35 35 W 16 26 29.81 1010 10 16 0.00 0.00
5:54 pm 17:54 Mostly Cloudy 86 30 55 12.8 35 35 WSW 16 26 29.80 1009 10 16 0.00 0.00
6:54 pm 18:54 Partly Cloudy 85 29.4 54 12.2 35 35 WSW 15 24 29.80 1009 10 16 0.00 0.00
7:54 pm 19:54 Partly Cloudy 82 27.8 53 11.7 37 37 WSW 13 20 29.81 1010 10 16 0.00 0.00
8:54 pm 20:54 Partly Cloudy 83 28.3 46 7.8 27 27 W 16 26 29.83 1010 10 16 0.00 0.00
9:54 pm 21:54 Partly Cloudy 81 27.2 44 6.7 27 27 WNW 22 35 29.87 1011 10 16 0.00 0.00
10:54 pm 22:54 Partly Cloudy 77 25 40 4.4 26 26 WNW 15 24 29.89 1012 10 16 0.00 0.00
11:54 pm 23:54 Mostly Cloudy 74 23.3 41 5 31 31 NW 17 28 29.91 1013 10 16 0.00 0.00

Powered by AerisWeather